Location: Az?znagar
(16.8373°N, 80.5091°E)
Time: 21:55:03
(UTC+00:00)

ASTRO E2 - Visible Passes

Search period start: 27 June 2022 00:00
Search period end: 07 July 2022 00:00
Orbit: 499 x 505 km, 31.4° (Epoch: 27 June)

Date Brightness Start Highest point End Pass type
(mag) Time Alt. Az. Time Alt. Az. Time Alt. Az.
27 Jun 5.6 22:59:26 10° N 23:00:51 12° N 23:02:15 10° NNE visible
28 Jun 5.5 22:36:58 10° NNW 22:38:36 12° NNE 22:40:13 10° NE visible
29 Jun 5.5 22:14:31 10° NNW 22:16:20 13° NNE 22:18:09 10° NE visible
30 Jun 5.5 21:52:34 11° N 21:54:04 14° NNE 21:56:04 10° NE visible
30 Jun 3.9 23:31:01 10° NW 23:34:44 42° NNE 23:38:26 10° E visible
01 Jul 5.0 14:45:32 10° SSW 14:45:55 12° SSW 14:45:55 12° SSW visible
01 Jul 5.6 21:32:07 14° NNE 21:32:07 14° NNE 21:33:58 10° NE visible
01 Jul 3.6 23:08:38 10° NW 23:12:24 48° NNE 23:16:10 10° E visible
02 Jul 3.5 14:23:02 10° SSW 14:26:28 29° SSE 14:26:28 29° SSE visible
02 Jul 3.3 22:46:39 12° NW 22:50:04 54° NNE 22:53:53 10° ESE visible
03 Jul 3.3 14:00:33 10° SSW 14:04:06 33° SSE 14:06:58 14° E visible
03 Jul 5.3 15:40:34 10° W 15:41:39 17° W 15:41:39 17° W visible
03 Jul 3.0 22:26:49 46° NNW 22:27:44 62° NNE 22:31:35 10° ESE visible
04 Jul 3.2 13:38:04 10° SW 13:41:44 38° SSE 13:45:23 10° E visible
04 Jul 4.1 15:18:18 10° W 15:21:54 34° NNW 15:21:56 34° NNW visible
04 Jul 4.3 22:07:14 29° ESE 22:07:14 29° ESE 22:09:14 10° ESE visible
04 Jul 4.2 23:42:46 10° WSW 23:45:22 17° SW 23:47:58 10° S visible
05 Jul 4.4 14:56:03 10° W 14:59:33 31° NNW 15:01:54 17° NNE visible
05 Jul 4.3 23:22:28 15° SW 23:22:59 15° SW 23:25:15 10° S visible
06 Jul 4.6 14:33:47 10° W 14:37:12 28° NNW 14:40:37 10° NE visible
